QPF
0.00 0.00 0.01 0.01 0.01 0.01 0.01 0.00 0.00 0.00 0.00 0.00 0.00 0.00 0.00 0.00 0.01 0.01 0.00 0.01 0.01 0.01 0.01 0.02 0.03 0.03 0.04 0.05 0.04 0.03 0.03 0.04 0.05 0.03 0.03 0.03 0.03 0.04 0.03 0.03 0.04 0.05 0.04 0.04 0.05 0.05 0.05 0.04 0.02
0.00 0.01 0.01 0.00 0.01 0.01 0.01 0.00 0.00 0.00 0.00 0.00 0.00 0.00 0.00 0.00 0.00 0.00 0.00 0.02 0.02 0.01 0.01 0.02 0.02 0.03 0.02 0.03 0.03 0.03 0.03 0.04 0.05 0.05 0.05 0.05 0.04 0.05 0.04 0.04 0.04 0.03 0.03 0.04 0.05 0.05 0.05 0.03 0.02
0.01 0.01 0.01 0.00 0.00 0.01 0.01 0.00 0.00 0.00 0.00 0.00 0.00 0.00 0.00 0.00 0.00 0.00 0.01 0.02 0.02 0.02 0.02 0.02 0.02 0.02 0.01 0.02 0.02 0.03 0.03 0.04 0.05 0.07 0.06 0.04 0.04 0.06 0.05 0.04 0.04 0.03 0.04 0.04 0.04 0.04 0.04 0.03 0.02
0.01 0.01 0.01 0.00 0.00 0.00 0.00 0.00 0.00 0.00 0.00 0.00 0.00 0.00 0.00 0.00 0.00 0.00 0.01 0.03 0.03 0.04 0.04 0.03 0.02 0.01 0.01 0.01 0.01 0.02 0.02 0.03 0.04 0.06 0.06 0.04 0.04 0.06 0.05 0.05 0.04 0.04 0.04 0.03 0.03 0.03 0.02 0.03 0.02
0.01 0.01 0.01 0.01 0.00 0.00 0.00 0.00 0.00 0.00 0.00 0.00 0.00 0.00 0.00 0.00 0.00 0.00 0.01 0.03 0.02 0.04 0.04 0.04 0.02 0.01 0.02 0.02 0.02 0.02 0.02 0.03 0.05 0.06 0.06 0.04 0.04 0.05 0.04 0.04 0.02 0.03 0.03 0.03 0.03 0.03 0.02 0.02 0.02
0.02 0.01 0.01 0.01 0.00 0.00 0.00 0.00 0.00 0.00 0.00 0.00 0.00 0.00 0.00 0.00 0.00 0.00 0.01 0.01 0.01 0.02 0.04 0.04 0.02 0.02 0.02 0.03 0.02 0.02 0.02 0.02 0.04 0.06 0.06 0.04 0.04 0.03 0.03 0.03 0.03 0.03 0.03 0.03 0.03 0.02 0.02 0.02 0.02
0.02 0.01 0.01 0.01 0.01 0.00 0.00 0.00 0.00 0.00 0.00 0.00 0.00 0.00 0.00 0.00 0.00 0.00 0.01 0.01 0.01 0.01 0.02 0.04 0.04 0.03 0.03 0.03 0.03 0.03 0.02 0.03 0.04 0.05 0.07 0.07 0.05 0.03 0.02 0.03 0.04 0.03 0.03 0.03 0.02 0.02 0.01 0.02 0.02
0.01 0.02 0.02 0.02 0.01 0.00 0.00 0.00 0.00 0.00 0.00 0.00 0.00 0.00 0.00 0.00 0.01 0.01 0.01 0.01 0.02 0.02 0.02 0.03 0.04 0.04 0.03 0.02 0.03 0.03 0.03 0.03 0.04 0.07 0.08 0.06 0.04 0.04 0.04 0.03 0.03 0.04 0.04 0.04 0.03 0.02 0.01 0.01 0.02
0.01 0.01 0.02 0.02 0.01 0.00 0.00 0.00 0.00 0.00 0.00 0.00 0.00 0.00 0.00 0.01 0.01 0.02 0.03 0.03 0.02 0.03 0.03 0.03 0.04 0.04 0.04 0.03 0.02 0.03 0.04 0.03 0.03 0.07 0.09 0.06 0.05 0.04 0.04 0.03 0.03 0.03 0.03 0.03 0.02 0.02 0.01 0.01 0.02
0.01 0.01 0.00 0.00 0.00 0.00 0.00 0.00 0.00 0.00 0.00 0.00 0.00 0.00 0.00 0.01 0.02 0.03 0.04 0.06 0.04 0.03 0.03 0.03 0.04 0.06 0.05 0.05 0.05 0.05 0.04 0.04 0.04 0.05 0.08 0.07 0.06 0.05 0.04 0.05 0.04 0.03 0.03 0.02 0.01 0.01 0.01 0.01 0.02
0.00 0.00 0.00 0.00 0.00 0.00 0.00 0.00 0.01 0.00 0.01 0.01 0.01 0.01 0.01 0.01 0.02 0.04 0.04 0.06 0.06 0.03 0.03 0.03 0.05 0.06 0.06 0.06 0.06 0.06 0.05 0.04 0.06 0.08 0.08 0.07 0.06 0.04 0.03 0.05 0.06 0.05 0.03 0.02 0.02 0.01 0.01 0.01 0.03
0.00 0.00 0.00 0.00 0.00 0.00 0.00 0.00 0.01 0.00 0.00 0.01 0.01 0.02 0.01 0.01 0.01 0.02 0.03 0.04 0.05 0.05 0.03 0.03 0.06 0.06 0.05 0.05 0.04 0.04 0.05 0.05 0.05 0.10 0.13 0.13 0.08 0.05 0.03 0.04 0.05 0.06 0.04 0.02 0.02 0.02 0.01 0.01 0.01
0.00 0.00 0.00 0.00 0.00 0.00 0.00 0.00 0.00 0.00 0.00 0.01 0.01 0.02 0.01 0.00 0.00 0.01 0.02 0.02 0.03 0.03 0.03 0.03 0.05 0.06 0.06 0.06 0.05 0.05 0.05 0.05 0.05 0.08 0.12 0.11 0.09 0.06 0.04 0.05 0.05 0.04 0.04 0.03 0.02 0.02 0.02 0.01 0.01
0.00 0.00 0.00 0.00 0.00 0.00 0.00 0.00 0.00 0.01 0.01 0.01 0.01 0.01 0.01 0.00 0.00 0.00 0.01 0.01 0.02 0.02 0.02 0.03 0.04 0.05 0.06 0.06 0.07 0.07 0.07 0.07 0.07 0.07 0.09 0.10 0.10 0.07 0.05 0.04 0.05 0.04 0.03 0.02 0.02 0.02 0.02 0.03 0.02
0.00 0.00 0.00 0.00 0.00 0.00 0.00 0.00 0.00 0.01 0.01 0.00 0.01 0.01 0.01 0.00 0.00 0.00 0.00 0.00 0.01 0.01 0.02 0.02 0.03 0.05 0.05 0.06 0.07 0.08 0.09 0.10 0.09 0.07 0.07 0.10 0.10 0.09 0.06 0.05 0.05 0.05 0.04 0.02 0.02 0.02 0.02 0.02 0.03
0.01 0.01 0.01 0.00 0.00 0.00 0.00 0.00 0.01 0.01 0.01 0.01 0.01 0.01 0.00 0.00 0.00 0.00 0.00 0.00 0.00 0.01 0.01 0.01 0.02 0.03 0.04 0.05 0.05 0.07 0.09 0.10 0.10 0.09 0.09 0.09 0.10 0.10 0.08 0.05 0.05 0.05 0.04 0.03 0.02 0.01 0.01 0.01 0.02
0.02 0.01 0.01 0.00 0.01 0.00 0.01 0.01 0.01 0.01 0.02 0.02 0.01 0.01 0.01 0.00 0.00 0.00 0.00 0.00 0.00 0.01 0.01 0.01 0.01 0.02 0.03 0.07 0.07 0.06 0.07 0.08 0.07 0.07 0.10 0.09 0.09 0.09 0.08 0.05 0.04 0.04 0.05 0.04 0.03 0.02 0.01 0.01 0.01
0.02 0.02 0.01 0.01 0.00 0.00 0.01 0.02 0.01 0.01 0.01 0.01 0.01 0.01 0.01 0.01 0.00 0.00 0.00 0.00 0.01 0.01 0.01 0.01 0.02 0.02 0.03 0.07 0.14 0.12 0.07 0.08 0.07 0.05 0.04 0.06 0.07 0.09 0.09 0.08 0.05 0.04 0.03 0.04 0.03 0.02 0.02 0.02 0.01
0.02 0.02 0.02 0.01 0.01 0.02 0.02 0.01 0.01 0.01 0.01 0.01 0.01 0.01 0.00 0.01 0.01 0.01 0.00 0.01 0.01 0.01 0.01 0.01 0.02 0.03 0.04 0.06 0.12 0.16 0.12 0.09 0.08 0.06 0.05 0.04 0.05 0.06 0.07 0.08 0.06 0.05 0.03 0.03 0.02 0.03 0.02 0.02 0.02
0.03 0.03 0.02 0.01 0.01 0.02 0.01 0.01 0.01 0.01 0.01 0.01 0.01 0.01 0.01 0.01 0.01 0.01 0.01 0.01 0.01 0.01 0.02 0.01 0.02 0.03 0.04 0.04 0.08 0.14 0.16 0.14 0.11 0.09 0.07 0.04 0.03 0.04 0.05 0.05 0.06 0.05 0.04 0.03 0.02 0.03 0.02 0.02 0.02
0.03 0.03 0.02 0.01 0.01 0.02 0.01 0.00 0.01 0.01 0.00 0.00 0.01 0.01 0.01 0.01 0.01 0.02 0.01 0.01 0.01 0.01 0.02 0.02 0.02 0.03 0.05 0.05 0.06 0.09 0.14 0.17 0.15 0.13 0.12 0.07 0.04 0.03 0.03 0.05 0.08 0.07 0.05 0.05 0.04 0.03 0.03 0.02 0.01
0.02 0.02 0.02 0.02 0.03 0.02 0.01 0.01 0.01 0.01 0.01 0.00 0.01 0.01 0.01 0.01 0.01 0.02 0.02 0.02 0.02 0.02 0.02 0.02 0.03 0.03 0.05 0.06 0.06 0.06 0.09 0.14 0.18 0.16 0.14 0.11 0.07 0.04 0.03 0.03 0.05 0.08 0.08 0.07 0.06 0.05 0.04 0.03 0.03
0.02 0.01 0.02 0.03 0.04 0.03 0.01 0.01 0.01 0.00 0.01 0.01 0.01 0.01 0.01 0.01 0.01 0.02 0.03 0.03 0.03 0.02 0.02 0.02 0.02 0.03 0.04 0.05 0.06 0.07 0.08 0.10 0.15 0.17 0.16 0.13 0.10 0.07 0.05 0.03 0.03 0.04 0.07 0.09 0.08 0.08 0.06 0.05 0.04
0.01 0.02 0.02 0.03 0.05 0.05 0.02 0.01 0.02 0.01 0.01 0.01 0.01 0.01 0.01 0.01 0.01 0.01 0.02 0.02 0.02 0.02 0.02 0.02 0.02 0.02 0.03 0.04 0.05 0.07 0.08 0.08 0.11 0.17 0.19 0.18 0.15 0.12 0.08 0.05 0.04 0.03 0.05 0.06 0.08 0.08 0.08 0.07 0.06
0.01 0.02 0.04 0.05 0.05 0.04 0.01 0.01 0.02 0.01 0.01 0.01 0.01 0.01 0.01 0.01 0.01 0.01 0.01 0.01 0.02 0.02 0.02 0.02 0.02 0.02 0.03 0.03 0.04 0.05 0.06 0.07 0.08 0.11 0.15 0.16 0.18 0.17 0.14 0.09 0.06 0.05 0.05 0.05 0.05 0.05 0.06 0.07 0.08
0.02 0.03 0.04 0.04 0.03 0.02 0.01 0.02 0.02 0.01 0.01 0.00 0.00 0.00 0.00 0.00 0.00 0.00 0.00 0.01 0.01 0.02 0.01 0.01 0.02 0.02 0.03 0.04 0.04 0.04 0.05 0.07 0.07 0.08 0.10 0.11 0.13 0.17 0.17 0.14 0.10 0.07 0.06 0.05 0.05 0.05 0.04 0.04 0.05
0.01 0.02 0.02 0.04 0.03 0.02 0.02 0.02 0.01 0.01 0.00 0.00 0.00 0.00 0.00 0.00 0.00 0.00 0.00 0.00 0.00 0.00 0.01 0.01 0.01 0.02 0.02 0.03 0.04 0.05 0.05 0.06 0.07 0.09 0.09 0.09 0.10 0.11 0.14 0.15 0.14 0.10 0.08 0.06 0.05 0.04 0.04 0.04 0.04
0.00 0.01 0.01 0.03 0.03 0.02 0.01 0.01 0.01 0.00 0.00 0.00 0.00 0.00 0.00 0.00 0.00 0.00 0.00 0.00 0.00 0.00 0.00 0.01 0.01 0.01 0.01 0.01 0.02 0.02 0.03 0.05 0.06 0.08 0.10 0.10 0.09 0.09 0.09 0.11 0.12 0.12 0.09 0.07 0.06 0.05 0.05 0.04 0.04
0.01 0.01 0.01 0.02 0.02 0.02 0.02 0.01 0.01 0.01 0.01 0.00 0.00 0.00 0.00 0.00 0.00 0.00 0.01 0.01 0.00 0.00 0.00 0.00 0.01 0.01 0.01 0.01 0.01 0.01 0.01 0.02 0.03 0.05 0.06 0.08 0.08 0.08 0.07 0.07 0.08 0.09 0.09 0.07 0.06 0.05 0.05 0.05 0.05
0.00 0.01 0.01 0.02 0.02 0.02 0.02 0.02 0.01 0.01 0.01 0.01 0.01 0.01 0.01 0.01 0.01 0.01 0.01 0.01 0.00 0.00 0.00 0.00 0.00 0.01 0.01 0.01 0.01 0.01 0.01 0.01 0.02 0.02 0.03 0.04 0.06 0.07 0.07 0.06 0.06 0.06 0.06 0.06 0.06 0.05 0.04 0.04 0.04
MSLP
1011.57 1012.12 1012.71 1013.24 1013.60 1013.73 1013.59 1013.23 1012.70 1012.09 1011.53 1011.07 1010.79 1010.67 1010.70 1010.84 1011.02 1011.22 1011.41 1011.60 1011.83 1012.11 1012.49 1012.95 1013.48 1014.04 1014.58 1015.05 1015.42 1015.70 1015.89 1016.04 1016.20 1016.37 1016.60 1016.85 1017.11 1017.33 1017.50 1017.59 1017.61 1017.57 1017.52 1017.49 1017.50 1017.56 1017.66 1017.78 1017.89
1011.91 1012.49 1013.05 1013.49 1013.72 1013.70 1013.42 1012.93 1012.33 1011.70 1011.16 1010.76 1010.55 1010.50 1010.58 1010.73 1010.90 1011.06 1011.22 1011.39 1011.61 1011.92 1012.35 1012.89 1013.51 1014.14 1014.74 1015.24 1015.63 1015.91 1016.09 1016.24 1016.40 1016.60 1016.85 1017.14 1017.43 1017.68 1017.87 1017.96 1017.97 1017.93 1017.87 1017.83 1017.84 1017.90 1018.01 1018.14 1018.25
1012.33 1012.87 1013.35 1013.66 1013.73 1013.55 1013.13 1012.56 1011.91 1011.31 1010.84 1010.54 1010.43 1010.48 1010.62 1010.80 1010.96 1011.10 1011.22 1011.35 1011.56 1011.89 1012.35 1012.94 1013.61 1014.30 1014.94 1015.47 1015.87 1016.14 1016.32 1016.46 1016.62 1016.83 1017.09 1017.40 1017.71 1017.97 1018.16 1018.25 1018.25 1018.21 1018.15 1018.12 1018.15 1018.24 1018.37 1018.51 1018.63
1012.75 1013.21 1013.56 1013.71 1013.62 1013.28 1012.75 1012.12 1011.48 1010.93 1010.56 1010.38 1010.39 1010.54 1010.75 1010.97 1011.15 1011.27 1011.36 1011.48 1011.68 1012.01 1012.49 1013.11 1013.81 1014.53 1015.19 1015.73 1016.14 1016.41 1016.59 1016.73 1016.88 1017.09 1017.36 1017.66 1017.97 1018.23 1018.41 1018.50 1018.50 1018.47 1018.42 1018.42 1018.48 1018.60 1018.76 1018.93 1019.07
1013.08 1013.44 1013.64 1013.63 1013.38 1012.92 1012.31 1011.65 1011.04 1010.57 1010.30 1010.24 1010.37 1010.62 1010.91 1011.17 1011.37 1011.50 1011.59 1011.71 1011.91 1012.25 1012.74 1013.37 1014.09 1014.83 1015.49 1016.04 1016.45 1016.72 1016.90 1017.04 1017.19 1017.40 1017.66 1017.95 1018.25 1018.50 1018.68 1018.76 1018.78 1018.76 1018.74 1018.77 1018.86 1019.02 1019.22 1019.41 1019.58
1013.26 1013.50 1013.56 1013.41 1013.05 1012.50 1011.85 1011.19 1010.63 1010.24 1010.06 1010.11 1010.33 1010.65 1011.00 1011.32 1011.55 1011.71 1011.82 1011.96 1012.19 1012.54 1013.05 1013.69 1014.41 1015.14 1015.80 1016.35 1016.76 1017.04 1017.23 1017.38 1017.54 1017.75 1018.00 1018.29 1018.58 1018.82 1019.00 1019.09 1019.12 1019.12 1019.13 1019.19 1019.31 1019.50 1019.72 1019.94 1020.13
1013.24 1013.38 1013.34 1013.10 1012.66 1012.08 1011.43 1010.80 1010.29 1009.97 1009.86 1009.97 1010.25 1010.62 1011.02 1011.37 1011.65 1011.86 1012.02 1012.21 1012.47 1012.85 1013.37 1014.01 1014.71 1015.42 1016.07 1016.61 1017.03 1017.32 1017.53 1017.71 1017.89 1018.11 1018.38 1018.67 1018.95 1019.20 1019.38 1019.49 1019.54 1019.56 1019.60 1019.68 1019.82 1020.01 1020.24 1020.47 1020.67
1013.05 1013.12 1013.02 1012.73 1012.29 1011.72 1011.11 1010.53 1010.08 1009.80 1009.74 1009.88 1010.18 1010.57 1010.99 1011.39 1011.72 1011.98 1012.21 1012.46 1012.76 1013.16 1013.67 1014.29 1014.96 1015.63 1016.25 1016.78 1017.20 1017.51 1017.76 1017.98 1018.20 1018.45 1018.74 1019.04 1019.34 1019.60 1019.80 1019.93 1020.01 1020.06 1020.11 1020.20 1020.34 1020.52 1020.73 1020.94 1021.14
1012.76 1012.79 1012.67 1012.40 1011.99 1011.48 1010.94 1010.43 1010.02 1009.78 1009.73 1009.88 1010.17 1010.57 1011.02 1011.45 1011.84 1012.18 1012.48 1012.78 1013.11 1013.51 1014.00 1014.55 1015.15 1015.76 1016.32 1016.82 1017.24 1017.58 1017.87 1018.14 1018.41 1018.71 1019.03 1019.37 1019.69 1019.97 1020.20 1020.36 1020.48 1020.56 1020.62 1020.71 1020.82 1020.97 1021.15 1021.33 1021.50
1012.46 1012.48 1012.38 1012.16 1011.81 1011.39 1010.92 1010.48 1010.12 1009.91 1009.87 1010.01 1010.31 1010.73 1011.20 1011.69 1012.15 1012.57 1012.94 1013.28 1013.62 1013.99 1014.40 1014.85 1015.34 1015.84 1016.32 1016.76 1017.16 1017.52 1017.85 1018.17 1018.50 1018.85 1019.21 1019.58 1019.94 1020.26 1020.53 1020.74 1020.89 1021.00 1021.08 1021.16 1021.25 1021.36 1021.48 1021.61 1021.75
1012.21 1012.24 1012.18 1012.02 1011.75 1011.41 1011.03 1010.65 1010.35 1010.17 1010.15 1010.32 1010.64 1011.10 1011.64 1012.21 1012.76 1013.26 1013.70 1014.07 1014.39 1014.68 1014.97 1015.28 1015.60 1015.94 1016.30 1016.65 1017.00 1017.36 1017.71 1018.08 1018.46 1018.85 1019.26 1019.67 1020.06 1020.42 1020.73 1020.99 1021.19 1021.34 1021.45 1021.54 1021.61 1021.67 1021.74 1021.83 1021.93
1012.09 1012.12 1012.09 1011.97 1011.77 1011.50 1011.18 1010.87 1010.62 1010.50 1010.54 1010.76 1011.16 1011.72 1012.37 1013.06 1013.73 1014.33 1014.82 1015.20 1015.48 1015.66 1015.79 1015.90 1016.02 1016.17 1016.35 1016.58 1016.86 1017.17 1017.52 1017.91 1018.31 1018.74 1019.17 1019.61 1020.03 1020.42 1020.78 1021.09 1021.35 1021.56 1021.72 1021.83 1021.90 1021.94 1021.98 1022.02 1022.09
1012.08 1012.10 1012.07 1011.97 1011.80 1011.56 1011.29 1011.04 1010.87 1010.83 1010.96 1011.31 1011.85 1012.56 1013.37 1014.23 1015.05 1015.75 1016.31 1016.69 1016.89 1016.94 1016.89 1016.78 1016.66 1016.58 1016.57 1016.65 1016.81 1017.05 1017.36 1017.73 1018.14 1018.56 1019.00 1019.44 1019.87 1020.29 1020.68 1021.05 1021.38 1021.65 1021.87 1022.03 1022.14 1022.20 1022.23 1022.25 1022.30
1012.15 1012.13 1012.07 1011.94 1011.76 1011.52 1011.28 1011.09 1011.00 1011.08 1011.38 1011.90 1012.65 1013.57 1014.59 1015.64 1016.62 1017.44 1018.06 1018.43 1018.56 1018.47 1018.24 1017.91 1017.56 1017.25 1017.03 1016.93 1016.95 1017.10 1017.33 1017.65 1018.01 1018.40 1018.81 1019.22 1019.64 1020.06 1020.47 1020.88 1021.27 1021.63 1021.93 1022.16 1022.34 1022.44 1022.51 1022.55 1022.60
1012.25 1012.17 1012.03 1011.84 1011.60 1011.34 1011.12 1010.99 1011.02 1011.27 1011.77 1012.52 1013.51 1014.67 1015.93 1017.18 1018.31 1019.24 1019.90 1020.27 1020.33 1020.13 1019.73 1019.22 1018.66 1018.15 1017.75 1017.47 1017.35 1017.37 1017.50 1017.73 1018.01 1018.33 1018.67 1019.03 1019.40 1019.80 1020.21 1020.64 1021.08 1021.51 1021.89 1022.22 1022.48 1022.67 1022.80 1022.89 1022.96
1012.32 1012.15 1011.92 1011.64 1011.33 1011.04 1010.85 1010.81 1010.98 1011.44 1012.18 1013.19 1014.44 1015.85 1017.32 1018.73 1019.99 1021.00 1021.69 1022.03 1022.04 1021.76 1021.25 1020.61 1019.91 1019.25 1018.69 1018.27 1018.01 1017.89 1017.91 1018.02 1018.20 1018.42 1018.67 1018.94 1019.24 1019.58 1019.96 1020.39 1020.85 1021.32 1021.78 1022.20 1022.55 1022.84 1023.05 1023.21 1023.33
1012.34 1012.07 1011.73 1011.35 1010.97 1010.68 1010.55 1010.64 1011.01 1011.70 1012.71 1014.00 1015.50 1017.11 1018.73 1020.26 1021.57 1022.59 1023.27 1023.59 1023.57 1023.24 1022.68 1021.97 1021.21 1020.47 1019.81 1019.28 1018.90 1018.67 1018.56 1018.54 1018.60 1018.71 1018.85 1019.01 1019.22 1019.47 1019.79 1020.17 1020.61 1021.09 1021.59 1022.08 1022.52 1022.90 1023.20 1023.43 1023.61
1012.29 1011.92 1011.47 1011.01 1010.61 1010.35 1010.33 1010.61 1011.23 1012.21 1013.50 1015.05 1016.75 1018.51 1020.21 1021.74 1023.02 1023.99 1024.61 1024.87 1024.82 1024.48 1023.93 1023.23 1022.48 1021.72 1021.04 1020.45 1019.98 1019.65 1019.42 1019.29 1019.23 1019.21 1019.23 1019.28 1019.38 1019.53 1019.74 1020.04 1020.42 1020.86 1021.35 1021.86 1022.35 1022.80 1023.18 1023.49 1023.73
1012.16 1011.70 1011.17 1010.66 1010.29 1010.14 1010.30 1010.84 1011.77 1013.07 1014.66 1016.44 1018.30 1020.12 1021.79 1023.24 1024.38 1025.20 1025.70 1025.88 1025.79 1025.47 1024.97 1024.35 1023.67 1022.97 1022.31 1021.71 1021.20 1020.78 1020.45 1020.21 1020.04 1019.91 1019.82 1019.76 1019.75 1019.78 1019.87 1020.05 1020.32 1020.67 1021.09 1021.56 1022.05 1022.53 1022.96 1023.33 1023.64
1011.98 1011.42 1010.83 1010.33 1010.04 1010.07 1010.50 1011.38 1012.67 1014.32 1016.21 1018.20 1020.17 1021.98 1023.54 1024.80 1025.72 1026.31 1026.62 1026.68 1026.55 1026.25 1025.84 1025.34 1024.78 1024.18 1023.59 1023.01 1022.48 1022.01 1021.61 1021.28 1021.01 1020.79 1020.61 1020.46 1020.33 1020.24 1020.20 1020.23 1020.35 1020.56 1020.86 1021.24 1021.67 1022.13 1022.57 1022.98 1023.33
1011.74 1011.09 1010.47 1010.02 1009.88 1010.15 1010.92 1012.18 1013.89 1015.92 1018.12 1020.30 1022.33 1024.07 1025.46 1026.46 1027.09 1027.40 1027.49 1027.40 1027.21 1026.94 1026.62 1026.25 1025.83 1025.36 1024.85 1024.32 1023.79 1023.28 1022.82 1022.42 1022.09 1021.81 1021.56 1021.34 1021.12 1020.92 1020.75 1020.62 1020.55 1020.58 1020.71 1020.95 1021.27 1021.66 1022.08 1022.49 1022.86
1011.50 1010.76 1010.12 1009.74 1009.78 1010.35 1011.49 1013.17 1015.31 1017.73 1020.22 1022.59 1024.66 1026.30 1027.48 1028.20 1028.51 1028.54 1028.38 1028.13 1027.87 1027.63 1027.39 1027.15 1026.87 1026.53 1026.10 1025.61 1025.09 1024.55 1024.05 1023.61 1023.23 1022.91 1022.62 1022.36 1022.08 1021.79 1021.49 1021.20 1020.95 1020.78 1020.71 1020.77 1020.94 1021.22 1021.57 1021.95 1022.33
1011.31 1010.48 1009.83 1009.54 1009.77 1010.62 1012.13 1014.23 1016.77 1019.55 1022.32 1024.85 1026.95 1028.51 1029.49 1029.94 1029.96 1029.71 1029.33 1028.95 1028.62 1028.39 1028.23 1028.10 1027.94 1027.69 1027.34 1026.88 1026.35 1025.80 1025.26 1024.78 1024.38 1024.04 1023.75 1023.46 1023.15 1022.79 1022.39 1021.95 1021.53 1021.16 1020.89 1020.75 1020.75 1020.89 1021.14 1021.47 1021.82
1011.30 1010.38 1009.72 1009.50 1009.90 1011.00 1012.82 1015.26 1018.15 1021.24 1024.24 1026.90 1029.02 1030.50 1031.32 1031.56 1031.36 1030.90 1030.35 1029.85 1029.48 1029.27 1029.17 1029.11 1029.03 1028.85 1028.54 1028.10 1027.56 1026.98 1026.41 1025.91 1025.49 1025.16 1024.87 1024.59 1024.26 1023.86 1023.38 1022.83 1022.25 1021.70 1021.24 1020.92 1020.75 1020.74 1020.87 1021.11 1021.41
1011.62 1010.64 1009.96 1009.80 1010.30 1011.57 1013.61 1016.29 1019.41 1022.70 1025.84 1028.58 1030.71 1032.13 1032.85 1032.95 1032.61 1032.01 1031.37 1030.81 1030.43 1030.23 1030.17 1030.17 1030.14 1029.99 1029.69 1029.24 1028.68 1028.07 1027.48 1026.96 1026.54 1026.21 1025.94 1025.67 1025.34 1024.92 1024.38 1023.75 1023.06 1022.37 1021.75 1021.26 1020.93 1020.77 1020.78 1020.92 1021.13
1012.44 1011.44 1010.76 1010.61 1011.16 1012.49 1014.61 1017.38 1020.58 1023.93 1027.11 1029.85 1031.96 1033.34 1033.99 1034.03 1033.63 1032.99 1032.32 1031.77 1031.40 1031.23 1031.20 1031.23 1031.21 1031.07 1030.76 1030.29 1029.70 1029.06 1028.44 1027.91 1027.49 1027.17 1026.92 1026.66 1026.34 1025.91 1025.34 1024.65 1023.88 1023.10 1022.36 1021.74 1021.28 1020.99 1020.86 1020.88 1020.99
1013.91 1012.93 1012.26 1012.10 1012.63 1013.93 1015.98 1018.67 1021.78 1025.03 1028.12 1030.77 1032.81 1034.13 1034.75 1034.79 1034.40 1033.80 1033.18 1032.67 1032.35 1032.21 1032.21 1032.25 1032.22 1032.06 1031.72 1031.22 1030.60 1029.94 1029.31 1028.76 1028.34 1028.03 1027.78 1027.53 1027.21 1026.77 1026.19 1025.48 1024.67 1023.82 1023.02 1022.31 1021.74 1021.34 1021.09 1020.97 1020.94
1016.04 1015.17 1014.54 1014.37 1014.82 1015.98 1017.84 1020.30 1023.16 1026.16 1029.01 1031.47 1033.37 1034.61 1035.21 1035.27 1034.95 1034.44 1033.91 1033.49 1033.23 1033.13 1033.15 1033.17 1033.13 1032.93 1032.56 1032.03 1031.39 1030.72 1030.08 1029.53 1029.11 1028.79 1028.54 1028.28 1027.95 1027.51 1026.92 1026.20 1025.37 1024.51 1023.67 1022.92 1022.28 1021.78 1021.42 1021.17 1020.99
1018.75 1018.05 1017.52 1017.35 1017.69 1018.65 1020.23 1022.34 1024.82 1027.43 1029.94 1032.11 1033.80 1034.92 1035.48 1035.58 1035.35 1034.95 1034.54 1034.21 1034.03 1033.97 1033.98 1033.99 1033.91 1033.68 1033.28 1032.74 1032.09 1031.42 1030.78 1030.25 1029.82 1029.49 1029.22 1028.94 1028.59 1028.14 1027.54 1026.82 1026.00 1025.15 1024.31 1023.54 1022.87 1022.31 1021.84 1021.46 1021.13
1021.73 1021.28 1020.90 1020.76 1021.02 1021.77 1023.02 1024.73 1026.75 1028.91 1030.99 1032.81 1034.24 1035.21 1035.72 1035.84 1035.69 1035.41 1035.11 1034.88 1034.75 1034.72 1034.73 1034.71 1034.59 1034.33 1033.91 1033.36 1032.73 1032.07 1031.46 1030.94 1030.51 1030.17 1029.87 1029.56 1029.18 1028.69 1028.09 1027.37 1026.58 1025.75 1024.94 1024.19 1023.50 1022.90 1022.35 1021.85 1021.36
Thickness
5687 5692 5695 5690 5676 5671 5675 5691 5705 5706 5707 5712 5713 5709 5701 5693 5688 5675 5679 5687 5688 5687 5686 5686 5688 5689 5689 5689 5690 5690 5691 5691 5691 5691 5692 5692 5692 5693 5693 5694 5694 5695 5695 5695 5695 5696 5696 5696 5696
5684 5689 5686 5677 5664 5661 5674 5692 5695 5700 5704 5707 5706 5704 5697 5686 5685 5679 5679 5681 5682 5682 5681 5682 5683 5683 5684 5684 5684 5685 5685 5685 5685 5685 5686 5686 5687 5687 5687 5688 5688 5689 5689 5690 5690 5690 5690 5691 5692
5679 5683 5673 5667 5663 5665 5676 5691 5693 5696 5701 5700 5693 5692 5687 5678 5678 5675 5674 5677 5677 5677 5676 5676 5677 5678 5678 5678 5678 5679 5679 5679 5679 5679 5679 5680 5681 5681 5681 5682 5682 5682 5683 5684 5684 5684 5685 5686 5687
5673 5670 5667 5659 5661 5673 5681 5687 5690 5689 5690 5693 5688 5678 5673 5671 5671 5670 5671 5672 5672 5671 5670 5670 5671 5671 5672 5672 5672 5672 5673 5673 5673 5673 5673 5673 5674 5675 5675 5675 5676 5676 5677 5677 5678 5678 5679 5680 5681
5666 5659 5651 5650 5659 5672 5681 5686 5688 5683 5681 5684 5682 5672 5661 5662 5664 5664 5665 5666 5665 5665 5664 5664 5664 5664 5665 5665 5665 5665 5666 5666 5666 5666 5665 5666 5667 5667 5668 5668 5669 5669 5670 5671 5671 5672 5673 5674 5675
5652 5652 5643 5644 5655 5668 5676 5681 5681 5677 5676 5677 5674 5666 5653 5655 5656 5656 5658 5658 5658 5658 5658 5657 5657 5657 5658 5658 5658 5658 5658 5658 5658 5658 5658 5658 5659 5660 5660 5661 5662 5662 5663 5663 5664 5665 5666 5668 5669
5643 5642 5641 5648 5652 5659 5667 5673 5670 5668 5666 5665 5667 5659 5648 5647 5648 5650 5651 5651 5651 5651 5651 5650 5650 5650 5650 5650 5650 5650 5650 5650 5650 5650 5650 5650 5651 5652 5652 5653 5653 5654 5655 5656 5657 5657 5659 5660 5662
5641 5638 5639 5644 5647 5652 5661 5663 5662 5659 5655 5659 5659 5651 5640 5639 5642 5643 5643 5643 5643 5643 5643 5643 5643 5642 5642 5642 5642 5642 5642 5642 5642 5642 5642 5642 5642 5643 5643 5644 5645 5646 5646 5647 5648 5649 5651 5653 5655
5637 5626 5629 5638 5642 5645 5652 5651 5650 5652 5649 5646 5643 5639 5637 5635 5635 5634 5634 5634 5634 5634 5634 5634 5635 5635 5634 5634 5634 5634 5634 5633 5634 5633 5633 5634 5634 5633 5634 5634 5635 5636 5637 5638 5639 5641 5642 5644 5646
5625 5617 5625 5634 5639 5638 5640 5639 5639 5637 5634 5631 5628 5627 5627 5626 5626 5625 5625 5624 5624 5624 5625 5626 5626 5627 5627 5627 5626 5626 5625 5625 5625 5624 5624 5624 5624 5624 5624 5624 5625 5626 5627 5628 5630 5632 5634 5636 5638
5619 5615 5621 5626 5629 5630 5627 5626 5629 5627 5622 5622 5619 5617 5617 5617 5617 5617 5616 5617 5617 5616 5616 5617 5617 5618 5618 5618 5618 5618 5617 5616 5616 5616 5615 5615 5614 5614 5614 5614 5615 5616 5617 5618 5620 5622 5624 5626 5628
5611 5612 5615 5615 5616 5618 5616 5615 5613 5612 5610 5613 5614 5612 5610 5609 5608 5608 5607 5607 5608 5607 5607 5608 5608 5608 5609 5609 5610 5609 5609 5608 5607 5607 5606 5605 5605 5604 5604 5604 5604 5605 5606 5607 5609 5612 5614 5617 5619
5601 5600 5603 5603 5604 5605 5605 5602 5601 5598 5601 5604 5604 5602 5601 5600 5599 5598 5598 5597 5598 5597 5597 5598 5598 5599 5600 5600 5601 5600 5600 5599 5598 5598 5597 5596 5596 5595 5595 5595 5595 5595 5596 5597 5599 5601 5604 5606 5609
5594 5592 5591 5593 5593 5594 5592 5590 5589 5590 5592 5593 5593 5590 5589 5588 5588 5587 5587 5587 5587 5587 5586 5587 5588 5589 5590 5590 5590 5590 5590 5589 5589 5588 5587 5587 5586 5586 5586 5586 5586 5586 5586 5588 5589 5591 5593 5596 5598
5585 5580 5581 5584 5585 5584 5581 5578 5580 5583 5583 5583 5582 5581 5578 5578 5577 5576 5575 5576 5576 5576 5576 5576 5578 5578 5579 5580 5580 5580 5580 5579 5578 5578 5577 5577 5577 5576 5576 5576 5576 5576 5577 5577 5578 5580 5583 5585 5587
5574 5571 5570 5579 5579 5577 5571 5570 5574 5575 5575 5573 5571 5569 5567 5566 5565 5564 5565 5565 5565 5566 5566 5566 5567 5567 5568 5569 5569 5569 5569 5568 5568 5567 5567 5567 5567 5566 5566 5566 5565 5565 5566 5567 5567 5569 5571 5572 5574
5562 5561 5567 5569 5573 5570 5564 5564 5565 5568 5568 5565 5562 5559 5556 5554 5554 5554 5554 5554 5554 5554 5554 5555 5555 5556 5556 5557 5558 5558 5557 5557 5556 5556 5556 5555 5556 5555 5554 5554 5554 5554 5555 5556 5556 5557 5559 5559 5561
5553 5557 5563 5563 5562 5560 5556 5556 5557 5559 5559 5555 5552 5550 5546 5544 5543 5544 5543 5543 5542 5542 5543 5543 5544 5544 5545 5546 5546 5546 5546 5545 5544 5544 5544 5543 5543 5543 5542 5542 5542 5542 5543 5543 5544 5544 5546 5546 5549
5548 5549 5552 5553 5551 5547 5547 5549 5551 5548 5547 5544 5541 5539 5536 5535 5535 5534 5533 5532 5532 5531 5531 5532 5532 5532 5533 5533 5533 5533 5533 5532 5532 5531 5531 5531 5531 5531 5530 5530 5530 5529 5530 5530 5531 5532 5532 5532 5535
5537 5536 5538 5539 5541 5538 5535 5539 5543 5541 5537 5535 5533 5530 5527 5526 5525 5524 5523 5522 5521 5520 5519 5520 5520 5520 5521 5521 5521 5521 5521 5520 5519 5519 5518 5519 5518 5518 5518 5517 5517 5516 5517 5517 5517 5518 5518 5519 5522
5528 5525 5525 5523 5524 5528 5524 5528 5533 5531 5529 5525 5523 5521 5519 5516 5513 5512 5512 5510 5509 5508 5508 5508 5508 5508 5509 5509 5509 5508 5508 5507 5506 5506 5505 5506 5505 5505 5505 5504 5504 5504 5504 5504 5505 5505 5506 5507 5509
5516 5515 5514 5510 5505 5508 5514 5504 5525 5522 5516 5514 5511 5509 5506 5503 5501 5500 5499 5498 5497 5495 5495 5495 5495 5496 5496 5497 5497 5497 5496 5496 5495 5494 5493 5493 5493 5493 5492 5492 5491 5492 5492 5492 5493 5494 5494 5495 5496
5501 5503 5503 5501 5497 5493 5500 5492 5511 5513 5506 5504 5500 5497 5494 5492 5490 5489 5488 5486 5485 5483 5482 5482 5483 5483 5483 5484 5484 5484 5484 5483 5483 5482 5481 5481 5481 5480 5480 5479 5479 5480 5480 5480 5481 5482 5483 5484 5486
5490 5492 5492 5491 5486 5480 5493 5489 5501 5500 5502 5499 5492 5488 5484 5481 5479 5477 5476 5475 5473 5471 5470 5470 5470 5470 5470 5470 5471 5471 5470 5470 5470 5470 5469 5468 5468 5467 5467 5467 5467 5467 5468 5468 5469 5471 5472 5473 5474
5480 5476 5475 5477 5476 5483 5488 5482 5485 5488 5490 5487 5482 5478 5474 5470 5467 5465 5464 5462 5461 5459 5458 5458 5457 5457 5457 5457 5457 5457 5458 5458 5457 5457 5457 5456 5455 5455 5454 5455 5455 5455 5456 5456 5457 5459 5461 5462 5463
5467 5470 5467 5467 5476 5481 5471 5471 5476 5476 5473 5472 5470 5468 5464 5459 5456 5454 5452 5450 5448 5447 5446 5444 5444 5443 5443 5443 5443 5443 5444 5444 5444 5445 5445 5445 5444 5443 5442 5442 5443 5443 5444 5444 5445 5446 5449 5450 5452
5461 5459 5461 5457 5458 5453 5464 5470 5466 5464 5459 5458 5456 5454 5449 5446 5444 5441 5440 5438 5437 5435 5433 5431 5430 5430 5429 5429 5429 5429 5429 5430 5430 5431 5432 5432 5432 5432 5431 5431 5431 5431 5432 5433 5434 5435 5437 5439 5441
5451 5452 5442 5443 5443 5451 5463 5466 5463 5453 5448 5442 5439 5437 5435 5433 5431 5429 5426 5425 5423 5422 5420 5418 5416 5415 5415 5415 5415 5416 5415 5416 5417 5417 5418 5418 5419 5419 5419 5419 5419 5419 5420 5421 5422 5423 5425 5427 5429
5437 5437 5435 5437 5442 5441 5444 5453 5453 5449 5439 5432 5427 5425 5421 5419 5416 5414 5413 5411 5409 5407 5406 5404 5402 5401 5401 5400 5400 5401 5401 5402 5403 5403 5404 5404 5405 5406 5406 5407 5408 5408 5408 5409 5410 5411 5413 5415 5417
5430 5430 5424 5421 5426 5429 5426 5433 5432 5430 5425 5422 5418 5415 5410 5406 5403 5400 5398 5397 5395 5393 5391 5390 5388 5387 5387 5386 5386 5386 5387 5388 5389 5389 5390 5391 5392 5393 5394 5395 5396 5396 5397 5397 5398 5399 5401 5402 5404